Location: Newark
(54.6833°N, 25.3167°E)
Time: 12:00:17
(UTC+00:00)

Envisat - Visible Passes

Search period start: 20 September 2020 00:00
Search period end: 30 September 2020 00:00
Orbit: 764 x 766 km, 98.1° (Epoch: 20 September)

Date Brightness Start Highest point End Pass type
(mag) Time Alt. Az. Time Alt. Az. Time Alt. Az.
20 Sep 6.0 03:14:33 10° NE 03:18:09 19° E 03:21:44 10° SE visible
21 Sep 6.7 17:21:09 10° W 17:22:42 11° W 17:24:15 10° WNW visible
23 Sep 6.2 03:03:34 10° NE 03:06:38 16° E 03:09:41 10° ESE visible
24 Sep 6.4 17:08:34 10° WSW 17:11:08 14° W 17:13:44 10° NW visible
25 Sep 5.8 03:28:16 10° NE 03:32:25 24° E 03:36:32 10° SE visible
26 Sep 6.4 02:52:46 10° NE 02:55:06 13° E 02:57:25 10° ESE visible
27 Sep 6.2 16:56:23 10° SW 16:59:36 17° W 17:02:51 10° NW visible
28 Sep 6.0 03:17:10 10° NE 03:20:55 20° E 03:24:40 10° SE visible
29 Sep 6.7 02:42:33 10° ENE 02:43:32 10° E 02:44:30 10° E visible
29 Sep 6.8 17:24:39 10° W 17:25:29 10° W 17:26:20 10° WNW visible
